Reflectivity
-20 -20 -20 -20 -12 -20 -20 -20 -20 9 -20 -20 -20 9 28 -19 -19 -20 -20 -20 -20 -20 -20 -20 -20 -20 -20 -20 -20 -20 -20 -20 -9 -10 -16 -20 -9 -14 -9 -15 -3 -0 -18 0
-20 -20 -20 -20 -20 -20 -20 -20 -20 5 4 -20 -20 -20 -20 -14 44 -6 -20 -20 -20 -20 -20 -20 -20 -20 -1 -17 -20 -20 -20 -20 -20 -20 -15 -9 -20 -20 -18 -19 -4 -20 -20 -20
-20 -20 -20 -20 -20 -20 -20 -20 -20 -13 -20 -20 -20 -20 -20 -20 12 -18 -20 -20 -20 -20 -20 -20 -20 -20 -20 -20 -16 -20 -20 -20 -20 -20 -19 -20 -20 -20 -20 -20 -20 -20 -20 -20
-20 -20 -20 -20 -20 -20 -20 -20 -20 -20 -20 -20 -20 -20 -20 -20 -14 -20 -20 -20 -20 -20 -20 -20 -20 -20 -20 -20 -20 -20 -20 -20 -20 -20 -20 2 -20 -20 -20 -20 -20 -20 -20 -20
-20 -20 -20 -20 -20 -20 -20 -20 -20 -20 -20 -20 4 -20 -20 -14 -20 -20 -20 -20 -20 -20 -20 -20 -20 -20 -20 -20 -20 -20 -20 -20 -20 -20 -20 11 -20 -20 -20 -20 -20 -20 -20 -20
-20 -20 -20 -20 -20 -20 -20 -20 -20 -20 -20 -20 -20 -10 -20 3 -20 10 12 -20 -20 -20 -20 -20 -20 -20 -20 -20 -20 -20 -20 -20 -20 -20 -20 -20 -3 -20 -20 -20 -20 -20 -20 -20
-20 -19 -17 -20 -20 -20 -20 -20 -20 -20 -20 -20 -17 -20 -20 -20 -9 13 7 -16 -20 -20 -20 -20 -20 -20 -20 -20 -20 -20 -20 -20 -20 -20 -20 -20 -20 -18 4 -20 -20 -9 -8 -20
-20 -20 -20 -20 -20 -20 -20 -20 -20 -4 1 -4 -7 -20 22 -14 -14 -0 -19 -16 -20 -20 -20 -20 -20 -20 -20 -20 -20 -20 -20 -20 -20 -20 -20 4 13 1 13 34 -19 22 -20 -20
-20 -20 -20 -20 -20 -20 -8 -20 -20 -20 -20 -19 -16 -15 -20 -20 -20 -20 -20 -20 -20 -20 -20 -20 -20 -20 -20 -20 -20 -20 -20 -20 -20 -20 4 -19 -10 -19 28 29 7 24 -13 -13
-17 -19 -20 1 -20 -20 -20 -13 -10 -20 -7 11 -20 -20 11 1 -20 -20 -20 -20 -20 -20 -20 -20 -20 -20 -20 -20 -20 -20 -20 -20 -20 -20 -20 -20 -20 -20 -18 34 -6 -18 -12 4
-20 2 -2 9 -11 -20 -20 -20 -13 -19 -20 -20 -20 -19 -5 27 17 -20 -20 -20 -20 -20 -20 -20 -20 -20 -20 -20 -20 -20 -20 -20 -5 2 29 23 33 29 -20 -20 -20 15 -18 8
-20 -0 -14 18 -7 -20 -20 -20 -20 -20 -20 -20 -20 -20 11 10 4 -20 -20 -20 -20 -20 -20 -20 -20 -20 -20 -20 -20 -20 -20 -20 -11 -2 32 10 -2 8 -12 16 27 24 19 12
-15 9 0 -8 8 -18 -17 -19 -19 -20 -20 -19 -11 -20 -2 -20 -20 -20 -20 -20 -20 -20 -20 -20 -20 -20 -20 -20 -20 -10 -5 -20 -20 36 19 9 8 2 -1 28 23 15 6 -6
3 14 -20 -20 -13 1 9 -20 -20 -20 1 -20 -20 -20 -20 -20 -20 -20 -20 -20 -20 -20 -20 -20 -20 -20 -20 -20 -20 -20 -20 -20 -20 -20 -18 -20 -20 -20 14 8 9 6 10 9
-0 5 -20 -20 -17 7 -11 -12 -16 -2 -15 -20 -17 -4 -20 -18 6 -10 -10 13 13 -20 -20 -20 -20 -20 -20 -20 -20 -20 -20 -0 -13 -17 -13 -20 -19 -9 17 10 11 4 9 3
-20 -20 -20 -20 -20 -20 12 0 -20 -20 -20 -20 -20 -20 -20 3 -13 -10 -20 -8 -20 -20 -20 -20 -20 -20 -20 -20 -20 -20 -20 -20 -20 -20 -4 -20 -20 27 -20 -20 -20 -20 -20 -20
-20 -20 -20 -20 -20 -20 -20 -20 -14 -9 8 -20 -20 -20 -12 -20 -4 -6 -20 -20 -20 -20 -20 -20 -20 -20 -20 -20 -18 -13 -20 -20 -20 -20 -20 -20 -20 5 -20 -20 -20 -20 -20 -20
-20 -20 -20 -8 -12 -3 -20 -20 -20 -20 -20 -20 -20 -20 -20 -20 -20 -20 -18 -20 -20 -20 -20 -20 -20 6 -17 -5 -20 -20 -20 -20 -20 -20 -20 -20 -20 -20 -20 -20 -20 -20 -20 -20
-10 -13 30 18 6 -20 -20 -20 -14 -20 -20 -20 -20 -20 -20 -18 -15 -20 -20 -20 -20 -20 -20 -20 -20 -20 -20 -20 -20 -20 15 -20 -20 -20 -20 -20 -20 -20 -20 -20 -20 -20 -20 -20
16 15 -20 11 -20 -20 -20 -2 5 -12 -20 -20 -20 -20 -20 -20 -20 -20 -20 -20 -20 -20 -20 -20 -20 -20 -20 -20 -20 -20 -20 -20 -20 -20 -20 -20 -20 -20 -20 -20 -20 -20 -20 -20
9 23 5 19 -7 -20 -20 17 3 -13 -15 -16 -20 -20 -20 -15 -20 -20 -20 -20 -20 -20 -20 -20 -20 -20 -20 -20 -20 -20 -20 -20 -20 -20 -20 -20 -20 -20 -20 -20 -20 -20 -20 -20
-5 8 24 5 17 4 -20 5 -0 -2 4 -10 -20 -16 -12 -20 -20 -20 -20 -20 -20 -20 -20 -20 -20 -20 -20 -20 -20 -20 -20 -20 -20 -20 -20 -20 -20 -20 -20 -20 -20 -20 -20 -20
23 -20 12 7 -19 -20 2 24 10 7 -12 -20 -0 3 -20 -20 -20 -20 -20 -20 -20 -20 -20 -20 -20 -20 -20 -20 -20 -20 -20 -20 -20 -20 -20 -20 -20 -20 -20 -20 -20 -20 -20 -20
-19 16 9 11 -11 -20 -6 7 9 -4 -20 -20 5 8 -20 -20 -20 -20 -20 -20 -20 -20 -20 -20 -20 -20 -20 -20 -20 -20 -20 -20 -20 -20 -20 -20 -20 -20 -20 -20 -20 -20 -20 -20
-3 5 19 -12 -20 10 5 22 30 18 -17 -20 -20 -20 -20 -20 -20 -20 -20 -20 -20 -20 -20 -20 -20 -20 -20 -20 -20 -20 -20 -20 -20 -20 -20 -20 -20 -20 -20 -20 -20 -20 -20 -20
-12 -20 -20 -20 -8 14 4 1 19 2 -20 -20 -20 -16 -20 -20 -20 -20 -20 -20 -20 -20 -20 -20 -20 -20 -20 -20 -20 -20 -20 -20 -20 -20 -20 -20 -20 -20 -20 -20 -20 -20 -20 -20
Wind_Speed
17 12 15 19 18 22 13 14 15 4 8 5 9 7 15 13 13 14 13 14 14 16 19 16 17 18 16 16 16 18 16 16 13 10 9 9 10 9 6 5 9 8 8 8
17 18 19 20 12 9 11 14 15 8 7 3 8 7 18 17 10 16 14 16 16 15 20 19 18 17 17 18 18 17 16 17 14 9 9 7 7 6 8 7 7 7 9 9
21 20 20 20 8 11 14 15 13 13 4 16 13 12 12 17 22 16 14 15 17 17 20 20 20 20 17 21 21 20 20 19 16 16 12 10 8 8 9 10 10 10 12 10
21 22 8 9 11 14 13 14 13 7 9 8 10 8 7 8 14 13 15 14 17 19 19 20 20 21 22 19 19 20 19 20 19 17 11 11 10 9 7 8 6 9 8 8
20 19 19 15 14 14 12 3 10 12 12 12 8 5 13 11 12 16 17 16 17 19 22 23 23 22 21 18 19 19 19 20 19 17 15 10 9 7 6 5 7 10 9 8
21 17 18 17 15 15 12 6 9 9 10 11 14 7 8 8 6 6 16 16 15 16 19 22 23 21 20 19 17 18 17 17 16 18 18 12 10 8 6 7 7 7 7 8
21 22 19 14 19 16 9 9 8 7 9 9 9 10 10 9 4 12 20 18 17 15 15 18 23 22 21 22 21 18 20 19 18 15 13 13 9 11 12 8 8 8 7 7
17 19 24 13 14 13 15 15 8 6 4 7 9 8 10 13 12 7 2 2 8 19 18 17 19 22 23 22 22 21 21 20 18 17 13 15 17 10 7 7 7 8 8 8
19 22 19 18 15 19 10 16 16 14 3 3 6 7 16 17 13 7 8 9 7 5 13 19 19 18 22 22 22 22 20 19 18 18 18 14 10 5 9 13 9 3 5 2
17 14 23 24 20 18 17 12 13 10 6 5 9 15 10 11 11 8 6 6 4 3 3 6 12 17 16 20 20 20 20 18 19 17 14 13 9 7 8 11 8 5 6 4
21 16 12 14 16 17 13 13 11 12 10 8 4 5 9 10 9 9 5 7 6 3 5 4 4 4 16 15 17 18 19 18 12 14 15 15 11 13 11 7 5 4 7 6
21 7 14 15 16 16 18 16 16 9 9 5 3 3 9 4 4 8 7 4 2 6 7 4 3 1 2 8 16 17 16 15 11 12 12 13 11 8 7 3 3 3 5 4
19 15 11 16 15 17 19 16 17 16 10 14 5 7 4 3 4 4 5 6 7 5 9 7 4 3 3 3 3 10 9 9 7 5 12 8 8 8 8 7 6 6 7 7
18 15 16 12 14 11 19 18 19 18 8 5 8 13 16 5 6 7 9 11 8 11 7 10 9 7 6 4 4 6 6 4 6 13 14 13 11 10 8 8 8 8 8 8
5 20 21 18 19 17 20 21 20 21 14 15 20 19 14 13 6 9 7 12 11 6 9 8 11 10 9 8 7 9 11 12 12 14 12 11 11 11 10 9 9 9 8 8
10 14 18 20 19 21 19 18 21 21 20 19 18 17 15 9 10 8 13 17 6 4 5 8 11 14 13 11 9 12 10 9 10 11 12 11 10 10 10 11 10 9 9 9
12 11 14 17 18 18 21 17 17 14 16 14 16 14 11 13 8 10 8 8 8 7 5 3 5 9 13 11 14 10 11 11 11 11 10 11 11 11 10 9 11 8 9 7
4 10 10 6 5 25 7 14 14 15 16 15 16 14 13 13 10 8 3 3 4 7 7 6 7 7 11 11 11 11 11 11 12 12 12 11 11 11 10 10 10 9 8 7
3 4 5 6 12 12 15 12 11 12 16 18 19 18 14 16 4 1 4 2 3 9 8 8 8 8 10 13 13 13 12 12 12 12 12 12 11 12 11 11 8 8 6 4
7 6 7 3 11 13 4 12 13 11 13 12 14 12 11 6 2 3 8 5 10 12 10 10 11 11 11 12 12 13 13 13 12 12 12 12 11 11 12 10 7 4 5 6
4 7 11 10 7 6 6 13 14 16 8 8 11 12 4 3 1 5 11 9 11 12 13 12 11 10 11 11 12 13 12 12 12 12 12 12 13 11 9 7 6 7 4 8
10 9 6 8 6 13 7 8 18 9 9 5 9 4 2 5 7 8 13 13 14 14 14 14 12 11 11 11 12 13 13 13 13 12 12 11 10 8 8 7 5 5 6 6
7 8 6 7 4 11 6 7 6 6 7 7 6 7 5 10 9 11 13 13 14 14 13 13 13 12 11 12 11 13 12 13 12 12 12 11 10 8 7 7 5 5 6 5
2 13 10 10 11 12 13 13 7 7 8 10 8 7 2 11 12 12 12 12 12 13 14 12 13 13 11 10 12 13 13 12 11 11 10 8 8 7 6 6 5 7 5 3
7 7 15 12 12 10 13 13 8 5 6 7 4 5 9 8 13 14 13 13 12 13 11 11 11 10 11 11 12 11 11 10 10 10 8 8 5 6 8 9 6 7 6 4
10 11 8 5 5 1 5 4 2 13 14 11 4 4 8 6 11 12 12 12 12 13 11 11 10 11 11 11 10 10 10 10 10 9 8 5 5 5 6 7 6 12 10 11
Wind_Direction
211 227 232 236 231 263 298 309 292 135 132 207 218 199 191 212 200 169 152 147 159 164 145 159 153 157 169 161 164 170 176 174 183 181 188 202 210 202 214 217 190 182 193 209
226 221 238 248 276 304 283 275 267 298 18 232 273 273 173 191 290 171 170 157 162 172 152 159 161 169 175 169 175 181 182 180 192 190 204 203 206 203 213 222 181 203 190 194
223 229 219 246 249 252 255 256 267 312 245 280 274 267 266 173 208 160 179 168 171 175 159 167 171 176 188 177 180 182 187 188 193 200 205 199 196 205 204 217 191 202 186 195
228 241 208 218 244 251 252 230 262 236 230 268 312 291 241 203 195 177 175 187 176 176 165 168 178 184 188 187 180 186 189 186 191 201 219 200 199 205 207 211 186 186 174 185
231 225 240 219 240 241 248 329 259 258 267 286 232 255 274 191 206 194 180 192 184 180 172 175 183 191 188 193 184 191 194 192 194 194 212 220 201 204 205 192 204 180 176 170
235 235 230 245 233 247 244 199 259 267 266 264 264 209 231 233 243 282 191 185 192 184 179 177 179 185 188 192 192 191 201 197 204 192 204 215 200 200 221 207 200 180 175 185
226 243 230 224 227 216 218 222 236 220 241 246 282 277 259 142 123 229 248 181 194 191 190 183 178 185 189 192 194 193 197 203 200 206 201 201 230 224 218 222 203 187 190 188
219 225 231 200 231 199 214 226 234 196 227 283 349 253 122 159 198 225 30 275 189 184 194 192 190 187 188 191 192 196 199 201 202 199 195 189 204 211 219 263 238 195 197 195
213 228 218 209 203 242 206 219 242 257 205 298 226 270 282 170 194 179 196 205 194 227 196 195 199 197 189 187 189 192 198 199 204 190 192 204 179 147 193 244 257 225 197 175
243 221 232 197 204 214 241 227 228 238 186 229 240 226 229 181 182 150 191 180 171 103 280 227 211 199 185 185 184 185 192 202 202 191 188 190 200 207 217 246 236 227 109 116
230 254 249 208 195 208 212 235 240 259 226 233 272 282 17 324 148 152 142 134 150 114 135 267 272 237 195 178 174 178 185 197 197 186 188 187 190 211 214 206 197 197 147 174
219 222 245 206 199 215 240 214 236 230 224 243 190 278 184 290 275 161 196 242 270 137 136 165 207 295 298 180 174 179 180 197 201 194 178 184 187 168 161 175 150 166 151 150
193 233 231 243 212 202 226 230 218 240 225 223 138 269 175 272 285 275 170 201 183 158 150 157 156 172 199 201 134 145 165 181 172 149 169 150 113 100 97 97 90 85 92 88
194 228 237 224 218 212 219 223 220 244 241 247 262 225 253 276 271 226 218 209 215 172 178 160 162 170 158 164 138 122 134 141 81 101 113 110 110 108 107 98 92 89 93 99
195 214 235 245 246 216 218 218 228 244 232 192 216 249 258 258 158 316 339 325 180 203 182 178 162 156 156 156 148 122 79 80 88 96 99 105 107 106 104 105 102 100 99 102
238 231 228 242 236 254 261 238 219 228 239 249 246 238 237 242 224 191 202 213 197 206 226 206 166 155 153 154 138 116 109 103 105 112 121 126 125 126 125 120 121 121 120 125
232 218 221 229 235 252 247 234 251 246 235 243 244 252 258 261 268 251 216 221 202 191 192 198 183 152 144 138 130 142 137 136 121 116 128 118 111 114 117 124 120 123 124 119
232 225 223 219 204 238 266 255 249 260 272 269 261 259 250 254 259 279 261 69 153 136 126 137 103 122 107 120 121 120 123 120 126 124 121 125 128 132 130 118 105 101 108 113
13 339 241 194 233 270 238 235 245 242 248 245 249 266 237 239 60 110 85 28 139 129 128 118 118 126 126 125 138 137 135 132 129 132 135 135 133 125 122 119 104 97 101 122
217 281 300 260 217 231 225 244 245 245 265 255 270 246 249 242 201 266 138 137 118 125 134 142 143 138 140 145 138 136 136 140 138 134 132 131 130 115 107 111 116 137 169 173
157 255 270 244 254 266 214 224 246 250 246 252 276 272 239 152 45 89 130 136 143 146 141 139 147 145 143 143 141 142 137 133 130 128 119 102 106 115 123 138 165 184 118 97
174 165 235 233 240 241 270 251 213 233 237 242 278 276 264 113 109 140 147 152 153 153 151 156 154 149 149 149 144 140 138 133 121 117 122 125 128 143 162 147 112 116 110 116
189 180 189 238 211 342 250 247 312 306 301 274 252 235 208 128 146 158 157 163 166 163 157 168 153 151 155 150 144 137 132 128 127 128 140 152 147 132 131 123 128 101 84 80
257 214 221 238 257 286 299 320 267 287 306 319 338 293 219 152 157 163 167 170 165 163 176 161 156 156 153 145 140 130 128 136 147 137 130 132 126 118 103 97 69 79 61 66
215 283 206 228 233 232 270 268 264 294 316 293 311 357 312 162 175 171 173 168 171 168 163 157 158 151 142 128 123 130 137 140 133 129 124 106 107 107 82 61 51 91 59 53
210 237 255 260 254 157 299 345 27 258 274 281 176 225 272 214 176 177 171 167 172 167 149 146 145 135 124 119 125 130 139 136 128 118 93 81 73 55 107 118 94 66 118 109